STARLINK-32122, 60285

Orbit data source: Space-Track

STARLINK-32122, 60285 is a payload satellite owned by SpaceX/Seattle (US) in LEO that was launched on Sun, 28 Jul 2024 UTC via an FALCON 9 launch vehicle from the Air Force Eastern Test Range (AFETR). Payload-class satellites include a variety of spacecraft equipped with specific instruments for various scientific and technological missions. These include communications satellites like Starlink; space stations such as the ISS; scientific satellites like the Hubble; Earth observation satellites from companies like Planet Labs, Umbra, and HawkEye 360; GPS; miniature CubeSats for education and research; and military/defense satellites.

Loading next visibility...
Identifier
60285, 2024-132H
Orbit
LEO
Last TLE update
5 hours ago
Origin
Manufacturer
SpaceX/Seattle
Mission
Operational spacecraft
Bus & Motor
STARLINK V2M, Unknown motor
Mass
730 kg wet, ~700 kg dry
Launch date (UTC)
2024-07-28 (11 months ago)
Launch vehicle
FALCON 9
Launch site
Air Force Eastern Test Range (AFETR)
Object type
Payload
Rocket body
Debris
Shape & HBR
Unknown
Radar Cross Section
Large (>1 m²)

Expand to show TLE details & history

TLE from 5 hours ago
0 STARLINK-32122
1 60285U 24132H   25182.18617905 -.00003198  00000-0 -95979-4 0  9994
2 60285  53.1593 140.6723 0001215  94.9073 265.2066 15.30169488 53058
Epoch: 2025-07-01T04:28Z
TLE epoch observation values (Epoch: 2025-07-01T04:28:05.869Z)
Latitude
-0.00008°
Longitude
154.16254°
Altitude
476.275 km
Speed
7.629 km/s
True Right ascension
09h 22m 41s
True Declination
0° 00' 00"
Sunlit
Object was in daylight at epoch
Visualization orbit readout
Latitude
22.52024°
Longitude
171.22255°
Altitude
475.685 km
Speed
7.631 km/s
Apparent Right ascension
09h 49m 35s
Apparent Declination
-7° 34' 04"
Sunlit
Object is in daylight
Visualization observer readout
Local Sidereal Time
20:55:56
Azimuth
336.054° NNW
Elevation
-55.495°
Doppler factor
1
Orbital elements
Apogee altitude
476.395 km
Perigee altitude
474.73 km
Semi-major axis
6,853.7 km
Eccentricity
0.00012
Inclination
53.1593°
RAAN
140.6723°
Arg. of periapsis
94.9073°
True anomaly
Unknown
Mean anomaly
265.2066°
Eccentric anomaly
Unknown
Mean motion
3.82521 °/min
Orbital period
94.11 mins
BSTAR
-0.000095979
Loading maneuver chart data...
Loading SW <> Apogee altitude chart data...
Loading historical data...
Loading historical data...
Loading historical data...
Loading historical data...
Loading historical data...
Loading historical data...
Loading historical data...

STARLINK-32122 Visibility forecast

Observer location: undefined°, undefined°

Span
Click to sort rows by Start time (UTC) header in descending order
Start Az.
Max El. time (UTC)
Max El. Az.
Max El.
End time (UTC)
End Az.
6 mins2025-07-01 23:26:41.173Z201.87° SSW2025-07-01 23:29:41.173Z121.867° SE33.768°2025-07-01 23:32:41.173Z63.497° ENE
4 mins2025-07-02 01:05:41.173Z288.053° WNW2025-07-02 01:07:41.173Z338.376° N24.213°2025-07-02 01:09:41.173Z21.51° NNE
5 mins2025-07-02 06:02:41.173Z339.644° N2025-07-02 06:04:41.173Z47.076° ENE31.76°2025-07-02 06:07:41.173Z103.175° ESE
4 mins2025-07-02 07:40:41.173Z265.157° W2025-07-02 07:41:41.173Z242.171° WSW22.294°2025-07-02 07:44:41.173Z178.125° S
|